Location: Cogollal
(10.0582°N, 67.8466°W)
Time: 23:57:39
(UTC+00:00)

Cosmos 1603 - Visible Passes

Search period start: 14 July 2024 00:00
Search period end: 24 July 2024 00:00
Orbit: 829 x 860 km, 71.0° (Epoch: 14 July)

Date Brightness Start Highest point End Pass type
(mag) Time Alt. Az. Time Alt. Az. Time Alt. Az.
14 Jul 5.9 01:45:49 10° N 01:47:11 18° N 01:47:11 18° N visible
15 Jul 5.6 01:31:38 10° N 01:33:35 21° N 01:33:35 21° N visible
16 Jul 5.2 01:17:28 10° N 01:20:04 26° NNE 01:20:04 26° NNE visible
17 Jul 4.8 01:03:17 10° N 01:06:35 32° NNE 01:06:35 32° NNE visible
18 Jul 4.5 00:49:07 10° N 00:53:11 37° NE 00:53:11 37° NE visible
19 Jul 4.2 00:34:57 10° N 00:39:50 40° ENE 00:39:50 40° ENE visible
19 Jul 6.5 02:21:18 10° WNW 02:21:45 11° WNW 02:21:45 11° WNW visible
20 Jul 4.1 00:20:48 10° N 00:26:01 39° ENE 00:26:34 38° E visible
20 Jul 6.3 02:06:51 10° WNW 02:08:29 13° W 02:08:29 13° W visible
21 Jul 4.3 00:06:38 10° N 00:11:48 37° ENE 00:13:21 31° ESE visible
21 Jul 6.1 01:52:25 10° WNW 01:55:17 15° W 01:55:17 15° W visible
21 Jul 4.3 23:52:29 10° N 23:57:35 35° ENE 00:00:15 23° ESE visible
22 Jul 6.0 01:38:01 10° WNW 01:41:18 16° WSW 01:42:10 15° WSW visible
22 Jul 4.4 23:38:20 10° N 23:43:21 33° ENE 23:47:13 16° SE visible
23 Jul 6.0 01:23:37 10° WNW 01:27:06 17° WSW 01:29:08 14° SW visible
23 Jul 4.5 23:24:11 10° N 23:29:08 32° ENE 23:34:03 10° SE visible
